TimeCDT,TemperatureF,Dew PointF,Humidity,Sea Level PressureIn,VisibilityMPH,Wind Direction,Wind SpeedMPH,Gust SpeedMPH,PrecipitationIn,Events,Conditions,WindDirDegrees,DateUTC
12:53 AM,64.0,46.9,54,29.96,10.0,NNE,10.4,-,N/A,,Clear,30,2013-03-19 05:53:00
1:53 AM,62.1,48.0,60,29.98,10.0,NE,9.2,-,N/A,,Clear,40,2013-03-19 06:53:00
2:53 AM,60.1,48.0,64,29.97,10.0,ENE,8.1,-,N/A,,Clear,60,2013-03-19 07:53:00
3:53 AM,57.9,46.9,67,29.97,10.0,East,9.2,-,N/A,,Clear,80,2013-03-19 08:53:00
4:53 AM,57.0,48.0,72,29.96,10.0,East,10.4,-,N/A,,Clear,90,2013-03-19 09:53:00
5:53 AM,55.9,46.9,72,29.96,10.0,East,9.2,-,N/A,,Clear,100,2013-03-19 10:53:00
6:53 AM,55.0,45.0,69,29.96,10.0,East,10.4,-,N/A,,Clear,100,2013-03-19 11:53:00
7:53 AM,54.0,42.1,64,29.99,10.0,East,6.9,-,N/A,,Clear,90,2013-03-19 12:53:00
8:53 AM,57.9,42.1,56,30.02,10.0,East,8.1,-,N/A,,Clear,90,2013-03-19 13:53:00
9:53 AM,61.0,42.1,50,30.05,10.0,East,6.9,-,N/A,,Clear,90,2013-03-19 14:53:00
10:53 AM,64.9,39.9,40,30.05,10.0,East,8.1,-,N/A,,Clear,90,2013-03-19 15:53:00
11:53 AM,68.0,41.0,37,30.04,10.0,East,11.5,-,N/A,,Clear,90,2013-03-19 16:53:00
12:53 PM,71.1,42.1,35,30.02,10.0,ENE,12.7,17.3,N/A,,Clear,70,2013-03-19 17:53:00
1:53 PM,73.9,43.0,33,29.99,10.0,East,12.7,16.1,N/A,,Clear,90,2013-03-19 18:53:00
2:53 PM,75.0,45.0,34,29.96,10.0,East,12.7,-,N/A,,Clear,80,2013-03-19 19:53:00
3:53 PM,75.9,45.0,33,29.95,10.0,Calm,Calm,-,N/A,,Clear,0,2013-03-19 20:53:00
4:53 PM,77.0,46.0,33,29.94,10.0,ENE,8.1,-,N/A,,Clear,60,2013-03-19 21:53:00
5:53 PM,73.9,46.0,37,29.93,10.0,ENE,6.9,-,N/A,,Clear,70,2013-03-19 22:53:00
6:53 PM,72.0,46.0,40,29.94,10.0,NE,5.8,-,N/A,,Clear,50,2013-03-19 23:53:00
7:53 PM,71.1,46.9,42,29.95,10.0,NE,8.1,-,N/A,,Mostly Cloudy,50,2013-03-20 00:53:00
8:53 PM,70.0,45.0,41,29.96,10.0,ENE,8.1,17.3,N/A,,Mostly Cloudy,60,2013-03-20 01:53:00
9:53 PM,69.1,42.1,38,30.01,10.0,NE,6.9,-,N/A,,Overcast,40,2013-03-20 02:53:00
10:53 PM,66.9,39.9,37,30.00,10.0,ENE,15.0,21.9,N/A,,Clear,70,2013-03-20 03:53:00
11:53 PM,64.9,37.9,37,30.02,10.0,NNE,4.6,-,N/A,,Partly Cloudy,20,2013-03-20 04:53:00